Cincinnati, OH

2:30 PM EST on February 25, 2017 (GMT -0500)
Cincinnati Municipal-Lunken

Weather History for KLUK - October, 2013

Change the Weather History Date:

Sunday, October 27, 2013

  Actual Average Record
Temperature  
Mean Temperature 44 °F -  
Max Temperature 57 °F 65 °F 84 °F (1963)
Min Temperature 32 °F 40 °F 18 °F (1962)
Degree Days  
Heating Degree Days 20    
Moisture  
Dew Point 35 °F    
Average Humidity 81    
Maximum Humidity 100    
Minimum Humidity 42    
Precipitation  
Precipitation 0.00 in - - ()
Sea Level Pressure  
Sea Level Pressure 30.11 in    
Wind  
Wind Speed 0 mph (SW)    
Max Wind Speed 5 mph    
Max Gust Speed -    
Visibility 7 miles    
Events Fog    
Averages and records for this station are not official NWS values.
T = Trace of Precipitation, MM = Missing Value Source: NWS Daily Summary

Daily Weather History Graph

Daily Weather History Graph

Search for Another Location

Airport or City:

Trip Planner

Search our weather history database for the weather conditions in past years. The results will help you decide how hot, cold, wet, or windy it might be!

Date:

Astronomy

Oct. 27, 2013 Rise Set
Actual Time 8:00 AM EDT 6:42 PM EDT
Civil Twilight 7:32 AM EDT 7:09 PM EDT
Nautical Twilight 7:01 AM EDT 7:41 PM EDT
Astronomical Twilight 6:30 AM EDT 8:12 PM EDT
Moon 12:59 AM EDT (10/27) 2:48 PM EDT (10/27)
Length of Visible Light 11h 37m
Length of Day
10h 42m
Last Quarter, 44% of the Moon is Illuminated
Oct 27
Last Quarter
Nov 3
New
Nov 10
First Quarter
Nov 17
Full
Nov 25
Last Quarter

Hourly Weather History & Observations

Time (EDT) Temp. Dew Point Humidity Pressure Visibility Wind Dir Wind Speed Gust Speed Precip Events Conditions
12:53 AM 44.1 °F 39.9 °F 85% 30.09 in 10.0 mi Calm Calm - N/A   Overcast
1:53 AM 39.9 °F 37.0 °F 89% 30.09 in 10.0 mi Calm Calm - N/A   Clear
2:53 AM 37.0 °F 36.0 °F 96% 30.09 in 10.0 mi Calm Calm - N/A   Clear
3:53 AM 35.1 °F 34.0 °F 96% 30.08 in 5.0 mi Calm Calm - N/A   Clear
4:53 AM 34.0 °F 33.1 °F 96% 30.08 in 5.0 mi Calm Calm - N/A   Clear
5:53 AM 35.1 °F 34.0 °F 96% 30.10 in 5.0 mi Calm Calm - N/A   Clear
6:53 AM 33.1 °F 33.1 °F 100% 30.10 in 5.0 mi Calm Calm - N/A   Clear
7:53 AM 33.1 °F 32.0 °F 96% 30.12 in 2.5 mi Calm Calm - N/A Fog Patches of Fog
8:00 AM 32.0 °F 30.2 °F 93% 30.11 in 3.0 mi Calm Calm - N/A Fog Patches of Fog
8:49 AM 33.8 °F 33.8 °F 100% 30.12 in 2.0 mi Calm Calm - N/A Fog Patches of Fog
8:53 AM 34.0 °F 33.1 °F 96% 30.13 in 1.0 mi Calm Calm - N/A Fog Patches of Fog
9:32 AM 35.6 °F 35.6 °F 100% 30.13 in 0.2 mi Calm Calm - N/A Fog Fog
9:53 AM 37.0 °F 37.0 °F 100% 30.15 in 0.2 mi Calm Calm - N/A Fog Fog
10:41 AM 41.0 °F 41.0 °F 100% 30.14 in 10.0 mi Calm Calm - N/A Fog Patches of Fog
10:53 AM 43.0 °F 41.0 °F 93% 30.14 in 10.0 mi Calm Calm - N/A   Clear
11:53 AM 50.0 °F 36.0 °F 59% 30.14 in 10.0 mi SW 3.5 mph - N/A   Clear
12:53 PM 53.1 °F 35.1 °F 50% 30.13 in 10.0 mi NNW 3.5 mph - N/A   Clear
1:53 PM 55.0 °F 34.0 °F 45% 30.10 in 10.0 mi SSW 4.6 mph - N/A   Clear
2:53 PM 57.0 °F 35.1 °F 44% 30.09 in 10.0 mi Calm Calm - N/A   Clear
3:53 PM 57.0 °F 34.0 °F 42% 30.08 in 10.0 mi Calm Calm - N/A   Clear
4:53 PM 57.0 °F 34.0 °F 42% 30.08 in 10.0 mi South 4.6 mph - N/A   Clear
5:53 PM 55.0 °F 33.1 °F 43% 30.07 in 10.0 mi SW 4.6 mph - N/A   Clear
6:53 PM 48.0 °F 37.0 °F 66% 30.07 in 10.0 mi Calm Calm - N/A   Clear
7:53 PM 43.0 °F 37.0 °F 80% 30.09 in 10.0 mi Calm Calm - N/A   Clear
8:53 PM 41.0 °F 37.0 °F 86% 30.09 in 10.0 mi Calm Calm - N/A   Clear
9:53 PM 37.9 °F 36.0 °F 93% 30.11 in 10.0 mi Calm Calm - N/A   Clear
10:53 PM 36.0 °F 35.1 °F 97% 30.12 in 9.0 mi Calm Calm - N/A   Clear
11:53 PM 35.1 °F 34.0 °F 96% 30.13 in 6.0 mi Calm Calm - N/A   Clear